CFG1EK EDDS-LEPA

Flight info

Callsign CFG1EK
Flight time N/A
Altitude 35000
Route ROTWE1K ROTWE Y126 TUBLO N850 NATOR DCT LUTIX DCT BENOT DCT NEMOS DCT GEVEA DCT INCUS DCT BALSI DCT RETNO DCT TUPOX DCT MTG DCT DIVKO DCT VATIR DCT PIVUS DCT BODEQ DCT VERSO L129 LUNIK
Aircraft A21N/M-SBDE3FGHIJ1J4J7LORVWXYZ/SB2D1G1

Departure

Time 2026-05-05 09:43
Airport Stuttgart Airport (EDDS)

Arrival

Time N/A
Airport Palma de Mallorca Airport (LEPA)
Time Latitude Longitude Altitude Speed Heading
2026-05-05 09:08 48.68951 9.21996 1233 ft 0 kts 164°
2026-05-05 09:09 48.68787 9.19617 1301 ft 0 kts 164°
2026-05-05 09:39 48.68762 9.19628 1300 ft 6 kts 164°
2026-05-05 09:39 48.68727 9.19677 1298 ft 7 kts 91°
2026-05-05 09:39 48.68741 9.19760 1296 ft 10 kts 74°
2026-05-05 09:40 48.68762 9.19879 1293 ft 12 kts 84°
2026-05-05 09:40 48.68715 9.19973 1291 ft 9 kts 161°
2026-05-05 09:40 48.68690 9.19984 1290 ft 0 kts 164°
2026-05-05 09:41 48.68688 9.19985 1290 ft 2 kts 164°
2026-05-05 09:41 48.68634 9.20007 1289 ft 10 kts 164°
2026-05-05 09:42 48.68584 9.20038 1288 ft 4 kts 117°
2026-05-05 09:42 48.68583 9.20064 1288 ft 0 kts 75°
2026-05-05 09:42 48.68592 9.20115 1286 ft 24 kts 75°
2026-05-05 09:43 48.68721 9.20795 1270 ft 106 kts 74°
2026-05-05 09:43 48.68993 9.22224 1229 ft 173 kts 73°
2026-05-05 09:43 48.69333 9.24075 1784 ft 181 kts 74°
2026-05-05 09:43 48.69658 9.25873 2568 ft 182 kts 72°
2026-05-05 09:44 48.69873 9.27723 3359 ft 182 kts 94°
2026-05-05 09:44 48.69486 9.29494 4003 ft 178 kts 124°
2026-05-05 09:44 48.68686 9.30939 4374 ft 187 kts 133°
2026-05-05 09:44 48.68364 9.31418 4472 ft 192 kts 140°